Inverness, United Kingdom

5:41 AM GMT on February 21, 2018 (GMT +0000)
Inverness

Weather History for EGPE - March, 2013

Change the Weather History Date:

Saturday, March 16, 2013

  Actual Average Record
Temperature  
Mean Temperature 30 °F -  
Max Temperature 41 °F 49 °F 59 °F (2004)
Min Temperature 19 °F 35 °F 19 °F (2013)
Degree Days  
Heating Degree Days 35    
Moisture  
Dew Point 32 °F    
Average Humidity 97    
Maximum Humidity 100    
Minimum Humidity 87    
Precipitation  
Precipitation 0.00 in - - ()
Sea Level Pressure  
Sea Level Pressure 29.33 in    
Wind  
Wind Speed 4 mph ()    
Max Wind Speed 16 mph    
Max Gust Speed -    
Visibility 5.9 miles    
Events Fog , Rain    
Averages and records for this station are not official NWS values.
T = Trace of Precipitation, MM = Missing Value Source: Averaged Metar Reports

Daily Weather History Graph

Daily Weather History Graph

Search for Another Location

Airport or City:

Trip Planner

Search our weather history database for the weather conditions in past years. The results will help you decide how hot, cold, wet, or windy it might be!

Date:

Astronomy

Mar. 16, 2013 Rise Set
Actual Time 6:29 AM GMT 6:21 PM GMT
Civil Twilight 5:50 AM GMT 7:00 PM GMT
Nautical Twilight 5:04 AM GMT 7:46 PM GMT
Astronomical Twilight 4:16 AM GMT 8:34 PM GMT
Moon 7:48 AM GMT (3/16) No Moon Set
Length of Visible Light 13h 09m
Length of Day
11h 52m
Waxing Crescent, 21% of the Moon is Illuminated
Mar 16
Waxing Crescent
Mar 19
First Quarter
Mar 27
Full
Apr 3
Last Quarter
Apr 10
New

Hourly Weather History & Observations

Time (GMT) Temp. Windchill Dew Point Humidity Pressure Visibility Wind Dir Wind Speed Gust Speed Precip Events Conditions
12:20 AM 23.0 °F 17.0 °F 23.0 °F 100% 29.39 in 6.2 mi SW 4.6 mph - N/A   Unknown
12:50 AM 24.8 °F - 24.8 °F 100% 29.42 in 6.2 mi Variable 2.3 mph - N/A   Unknown
1:20 AM 24.8 °F - 24.8 °F 100% 29.42 in 6.2 mi Calm Calm - N/A   Unknown
1:50 AM 23.0 °F - 21.2 °F 93% 29.39 in 6.2 mi Variable 2.3 mph - N/A   Unknown
2:20 AM 23.0 °F - 23.0 °F 100% 29.39 in 6.2 mi Calm Calm - N/A   Partly Cloudy
2:50 AM 24.8 °F - 24.8 °F 100% 29.39 in 6.2 mi SSW 2.3 mph - N/A   Partly Cloudy
3:20 AM 24.8 °F 20.5 °F 24.8 °F 100% 29.39 in 6.2 mi SW 3.5 mph - N/A   Partly Cloudy
3:50 AM 24.8 °F 20.5 °F 23.0 °F 93% 29.39 in 6.2 mi SSW 3.5 mph - N/A   Partly Cloudy
4:20 AM 23.0 °F 18.4 °F 21.2 °F 93% 29.39 in 6.2 mi SSW 3.5 mph - N/A   Partly Cloudy
4:50 AM 21.2 °F - 21.2 °F 100% 29.39 in 6.2 mi SSW 2.3 mph - N/A   Partly Cloudy
5:20 AM 21.2 °F - 21.2 °F 100% 29.39 in 6.2 mi Calm Calm - N/A   Partly Cloudy
5:50 AM 23.0 °F 18.4 °F 21.2 °F 93% 29.39 in 6.2 mi South 3.5 mph - N/A   Partly Cloudy
6:20 AM 19.4 °F - 19.4 °F 100% 29.39 in 6.2 mi South 2.3 mph - N/A   Partly Cloudy
6:50 AM 21.2 °F - 21.2 °F 100% 29.39 in 6.2 mi Variable 2.3 mph - N/A   Partly Cloudy
7:20 AM 21.2 °F - 21.2 °F 100% 29.39 in 6.2 mi South 2.3 mph - N/A   Partly Cloudy
7:50 AM 23.0 °F - 23.0 °F 100% 29.39 in 6.2 mi SW 2.3 mph - N/A   Partly Cloudy
8:20 AM 26.6 °F 21.2 °F 26.6 °F 100% 29.39 in 6.2 mi WSW 4.6 mph - N/A Fog Partly Cloudy
8:50 AM 30.2 °F 26.7 °F 30.2 °F 100% 29.39 in 6.2 mi SSW 3.5 mph - N/A Fog Partly Cloudy
9:20 AM 32.0 °F 28.7 °F 30.2 °F 93% 29.39 in 6.2 mi SW 3.5 mph - N/A Fog Mostly Cloudy
9:50 AM 32.0 °F 28.7 °F 32.0 °F 100% 29.39 in 6.2 mi WSW 3.5 mph - N/A Fog Mostly Cloudy
10:20 AM 33.8 °F - 32.0 °F 93% 29.39 in 6.2 mi Variable 2.3 mph - N/A Fog Mostly Cloudy
10:50 AM 33.8 °F - 32.0 °F 93% 29.39 in 6.2 mi SW 2.3 mph - N/A Fog Mostly Cloudy
11:20 AM 33.8 °F - 32.0 °F 93% 29.39 in 6.2 mi Calm Calm - N/A   Mostly Cloudy
11:50 AM 35.6 °F - 33.8 °F 93% 29.39 in 6.2 mi Calm Calm - N/A   Mostly Cloudy
12:20 PM 35.6 °F - 33.8 °F 93% 29.36 in 6.2 mi SW 2.3 mph - N/A   Mostly Cloudy
12:50 PM 35.6 °F 32.8 °F 33.8 °F 93% 29.36 in 6.2 mi Variable 3.5 mph - N/A   Mostly Cloudy
1:20 PM 35.6 °F 32.8 °F 35.6 °F 100% 29.36 in 6.2 mi WSW 3.5 mph - N/A   Mostly Cloudy
1:50 PM 37.4 °F 34.9 °F 35.6 °F 93% 29.33 in 6.2 mi SW 3.5 mph - N/A   Mostly Cloudy
2:20 PM 37.4 °F 34.9 °F 35.6 °F 93% 29.33 in 6.2 mi Variable 3.5 mph - N/A   Mostly Cloudy
2:50 PM 41.0 °F 36.4 °F 37.4 °F 87% 29.30 in 6.2 mi North 6.9 mph - N/A Rain Light Rain Showers
3:20 PM 41.0 °F 33.9 °F 39.2 °F 93% 29.30 in 6.2 mi NNE 12.7 mph - N/A Rain Light Rain
3:50 PM 41.0 °F 34.7 °F 39.2 °F 93% 29.30 in 6.2 mi NNE 10.4 mph - N/A Rain Light Rain
4:20 PM 41.0 °F 36.4 °F 39.2 °F 93% 29.30 in 6.2 mi NNE 6.9 mph - N/A Rain Light Rain
4:50 PM 41.0 °F 34.7 °F 37.4 °F 87% 29.27 in 6.2 mi NNE 10.4 mph - N/A Rain Light Rain
5:20 PM 39.2 °F 30.8 °F 37.4 °F 93% 29.27 in 6.2 mi NNE 15.0 mph - N/A Rain Light Rain
5:50 PM 39.2 °F 30.8 °F 39.2 °F 100% 29.27 in 6.2 mi NNE 15.0 mph - N/A Rain Light Rain
6:20 PM 39.2 °F 30.8 °F 39.2 °F 100% 29.27 in 5.0 mi NNE 15.0 mph - N/A Rain Light Rain
6:50 PM 39.2 °F 30.8 °F 39.2 °F 100% 29.24 in 5.0 mi NNE 15.0 mph - N/A Rain Light Rain
7:20 PM 39.2 °F 31.2 °F 39.2 °F 100% 29.24 in 3.7 mi NNE 13.8 mph - N/A Rain Light Rain
7:50 PM 39.2 °F 30.5 °F 39.2 °F 100% 29.24 in 3.7 mi North 16.1 mph - N/A Rain Rain
8:20 PM 39.2 °F 30.5 °F 39.2 °F 100% 29.24 in 3.7 mi NNE 16.1 mph - N/A Rain Rain
8:50 PM 39.2 °F 32.0 °F 39.2 °F 100% 29.21 in 3.7 mi NNE 11.5 mph - N/A Rain Rain
9:20 PM 39.2 °F 33.0 °F 39.2 °F 100% 29.21 in 6.2 mi ENE 9.2 mph - N/A Rain Light Rain
9:50 PM 39.2 °F 35.9 °F 39.2 °F 100% 29.21 in 6.2 mi East 4.6 mph - N/A   Drizzle
10:20 PM 39.2 °F - 39.2 °F 100% 29.24 in 5.0 mi ENE 2.3 mph - N/A   Overcast
10:50 PM 37.4 °F 34.9 °F 37.4 °F 100% 29.24 in - NE 3.5 mph - N/A   Partly Cloudy
11:20 PM 39.2 °F 37.0 °F 37.4 °F 93% 29.24 in - East 3.5 mph - N/A   Overcast
11:50 PM 39.2 °F 35.9 °F 39.2 °F 100% 29.24 in - ESE 4.6 mph - N/A   Overcast